Location: Dealu Mare
(46.0500°N, 22.8167°E)
Time: 23:30:41
(UTC+00:00)

TIMED - Pass Details

Date: 15 January 2026
Orbit: 581 x 584 km, 74.1° (Epoch: 13 February)

Event Time Altitude Azimuth Distance (km) Brightness Sun altitude
Rises 04:20:23 0° 209° (SSW) 2,788 7.8 -18.0°
Reaches altitude 10° 04:22:36 10° 212° (SSW) 1,893 6.9 -17.6°
Maximum altitude 04:26:47 62° 294° (WNW) 660 4.4 -16.9°
Drops below altitude 10° 04:31:00 10° 15° (NNE) 1,909 7.1 -16.2°
Sets 04:33:16 0° 19° (NNE) 2,814 8.0 -15.8°
